Location: Washington
(38.8950°N, 77.0370°W)
Time: 09:47:04
(UTC-04:00)

Amateur Radio Satellites - All Passes

Search period start: 01 October 2016 09:17
Search period end: 02 October 2016 09:17
Location: Washington, 38.8950°N, 77.0370°W

Satellite Date Start Highest point End Downlink Frequencies (MHz)
Time Altitude Azimuth
PRISM 01 Oct 09:23:41 09:27:51 75° 258° (WSW) 09:32:02 437.425
UNISAT 6 01 Oct 09:24:59 09:26:56 13° 64° (ENE) 09:28:54 437.425
HO-68 01 Oct 09:35:44 09:42:51 71° 289° (WNW) 09:49:56 435.675
CINEMA 3 01 Oct 09:38:01 09:41:38 28° 289° (WNW) 09:45:19 145.822/145.860
NOAA 18 01 Oct 09:38:44 09:40:14 11° 302° (WNW) 09:41:44 137.9125
BEESAT 2 01 Oct 09:41:22 09:45:17 51° 56° (NE) 09:49:12 435.950
COMPASS 1 01 Oct 09:44:48 09:49:01 70° 284° (WNW) 09:53:11 437.405
DELFI C3 01 Oct 09:46:48 09:48:15 12° 91° (E) 09:49:42 145.870
PHONESAT 2.4 01 Oct 09:47:19 09:50:07 47° 159° (SSE) 09:52:57 2401.200-2431.200
ANTELSAT 01 Oct 09:58:13 10:01:54 29° 70° (ENE) 10:05:37 437.575/2403.000
FUNcube-1 01 Oct 10:06:05 10:10:24 56° 100° (E) 10:14:47 145.935
BEESAT 3 01 Oct 10:15:53 10:19:23 30° 246° (WSW) 10:22:51 437.485
Cosmos 2499 01 Oct 10:16:17 10:22:29 32° 287° (WNW) 10:28:40 435.465 / 435.565
TIGRISAT 01 Oct 10:17:14 10:21:17 46° 73° (ENE) 10:25:21 435.000
CUBEBUG 2 01 Oct 10:19:48 10:23:48 38° 288° (WNW) 10:27:56 437.445
SEEDS 01 Oct 10:21:29 10:24:33 19° 292° (WNW) 10:27:35 437.485
CUTE 1.7 + AOD 2 01 Oct 10:28:15 10:30:01 12° 296° (WNW) 10:31:46 437.475
UWE-3 01 Oct 10:29:45 10:33:55 45° 287° (WNW) 10:38:10 435.000/436.395/437.385
CANX-2 01 Oct 10:31:37 10:31:58 10° 297° (WNW) 10:32:20 2200.000
AAUSAT CUBESAT 2 01 Oct 10:32:38 10:36:06 26° 290° (WNW) 10:39:34 437.432
HUMSAT D 01 Oct 10:37:48 10:41:20 25° 95° (E) 10:44:53 437.325/437.525
Oscar 11 01 Oct 10:41:12 10:45:28 56° 286° (WNW) 10:49:43 145.826/435.025
QB50P2 01 Oct 10:46:37 10:48:51 14° 65° (ENE) 10:51:03 145.880/145.840
POLYITAN 1 01 Oct 10:48:48 10:51:00 14° 65° (ENE) 10:53:12 437.675
ZACube-1 01 Oct 10:50:30 10:54:38 42° 287° (WNW) 10:58:51 437.345
UNISAT 6 01 Oct 10:59:03 11:03:12 52° 260° (W) 11:07:22 437.425
AIST 2 01 Oct 10:59:41 11:02:09 15° 45° (NE) 11:04:37 435.215
GONETS M04 01 Oct 11:12:16 11:17:18 16° 298° (WNW) 11:22:23
DELFI C3 01 Oct 11:19:28 11:23:20 47° 286° (WNW) 11:27:10 145.870
DUCHIFAT 1 01 Oct 11:19:37 11:23:06 26° 70° (ENE) 11:26:36 145.980
BEESAT 2 01 Oct 11:20:51 11:22:39 13° 251° (WSW) 11:24:27 435.950
PHONESAT 2.4 01 Oct 11:23:17 11:26:11 63° 355° (N) 11:29:06 2401.200-2431.200
QB50P1 01 Oct 11:25:42 11:29:31 35° 72° (ENE) 11:33:22 145.935-145.965
HO-68 01 Oct 11:26:19 11:29:18 13° 307° (NW) 11:32:18 435.675
ANTELSAT 01 Oct 11:35:24 11:38:38 21° 265° (W) 11:41:52 437.575/2403.000
POPSAT HIP 1 01 Oct 11:39:20 11:43:24 50° 74° (ENE) 11:47:28 437.405
JAS-2 01 Oct 11:43:42 11:50:05 52° 69° (ENE) 11:57:15 435.910
FUNcube-1 01 Oct 11:44:06 11:46:10 13° 295° (WNW) 11:48:16 145.935
NANOSAT C BR1 01 Oct 11:52:47 11:56:56 71° 76° (ENE) 12:01:07 145.865
TIGRISAT 01 Oct 11:56:06 11:58:13 13° 268° (W) 12:00:20 435.000
CUBEBUG 1 01 Oct 11:57:23 12:00:14 17° 93° (E) 12:03:05 437.445
VELOX 1 01 Oct 12:03:37 12:06:12 15° 93° (E) 12:08:45 145.980
HUMSAT D 01 Oct 12:13:18 12:16:52 26° 290° (WNW) 12:20:26 437.325/437.525
ESTCUBE 1 01 Oct 12:19:35 12:24:01 51° 100° (E) 12:28:24 437.505/2401.250
QB50P2 01 Oct 12:20:10 12:24:13 47° 261° (W) 12:28:17 145.880/145.840
SPROUT 01 Oct 12:20:33 12:22:23 12° 91° (E) 12:24:13 437.525
POLYITAN 1 01 Oct 12:22:21 12:26:23 47° 261° (W) 12:30:27 437.675
AIST 2 01 Oct 12:36:52 12:41:01 61° 242° (WSW) 12:45:09 435.215
BUGSAT 1 01 Oct 12:40:33 12:44:39 87° 256° (WSW) 12:48:44 437.445
UKube-1 01 Oct 12:41:40 12:44:43 19° 94° (E) 12:47:44 .
Gurwin Techsat 1B 01 Oct 12:47:35 12:49:15 11° 59° (ENE) 12:50:57 435.225
Oscar 19 01 Oct 12:54:34 12:58:55 28° 67° (ENE) 13:03:17 437.125/150
AISAT 01 Oct 12:55:16 12:59:38 63° 102° (ESE) 13:03:57 437.250
DUCHIFAT 1 01 Oct 12:55:24 12:58:44 23° 265° (W) 13:02:05 145.980
M-CUBED/EXP-1 PRIME 01 Oct 12:56:23 12:58:54 20° 101° (ESE) 13:01:27 437.505
PHONESAT 2.4 01 Oct 12:59:26 13:02:23 80° 13° (NNE) 13:05:19 2401.200-2431.200
PCSat 01 Oct 13:01:05 13:06:22 50° 57° (ENE) 13:11:37 145.827
QB50P1 01 Oct 13:02:37 13:05:25 17° 267° (W) 13:08:11 145.935-145.965
YUBILEINY 01 Oct 13:03:34 13:10:36 26° 69° (ENE) 13:17:35 435.215
Cosmos 2491 01 Oct 13:05:28 13:07:44 11° 74° (ENE) 13:09:59 435.465 / 435.565
50 SAT 01 Oct 13:12:46 13:16:26 77° 282° (WNW) 13:20:02 437.505
DX 1 01 Oct 13:16:59 13:21:18 63° 102° (ESE) 13:25:34 434.975-435.025
POPSAT HIP 1 01 Oct 13:17:47 13:19:27 12° 269° (W) 13:21:07 437.405
Cosmos 2504 01 Oct 13:26:07 13:28:04 11° 62° (ENE) 13:30:02 435.465 / 435.565
TISAT 1 01 Oct 13:26:34 13:28:26 13° 92° (E) 13:30:18 437.305
JAS-2 01 Oct 13:29:55 13:35:26 28° 269° (W) 13:41:31 435.910
CUBEBUG 1 01 Oct 13:32:39 13:36:39 37° 289° (WNW) 13:40:37 437.445
VELOX 1 01 Oct 13:38:41 13:42:52 44° 288° (WNW) 13:47:01 145.980
SO-50 01 Oct 13:43:00 13:46:31 20° 110° (ESE) 13:50:00 436.795
AUBIESAT-1 01 Oct 13:49:13 13:52:32 87° 288° (WNW) 13:55:54 437.475
SPROUT 01 Oct 13:54:28 13:58:36 50° 287° (WNW) 14:02:42 437.525
ESTCUBE 1 01 Oct 13:57:46 14:00:22 15° 296° (WNW) 14:02:58 437.505/2401.250
ITAMSAT 1 01 Oct 13:58:15 14:01:01 15° 61° (ENE) 14:03:47 435.822/435.867
AO-7 01 Oct 13:59:03 14:04:17 19° 51° (NE) 14:09:30 29.400- 29.500
UKube-1 01 Oct 14:16:55 14:20:50 35° 289° (WNW) 14:24:44 .
Gurwin Techsat 1B 01 Oct 14:23:05 14:28:24 90° 75° (ENE) 14:33:45 435.225
BEESAT 01 Oct 14:27:40 14:29:37 12° 91° (E) 14:31:33 436.000
M-CUBED/EXP-1 PRIME 01 Oct 14:31:03 14:33:21 18° 295° (WNW) 14:35:41 437.505
Oscar 19 01 Oct 14:33:25 14:38:05 34° 263° (W) 14:42:48 437.125/150
AISAT 01 Oct 14:33:54 14:35:33 12° 297° (WNW) 14:37:11 437.250
PHONESAT 2.4 01 Oct 14:35:45 14:38:18 27° 207° (SSW) 14:40:51 2401.200-2431.200
PCSat 01 Oct 14:45:23 14:49:22 21° 254° (WSW) 14:53:19 145.827
Cosmos 2491 01 Oct 14:54:05 15:02:47 70° 93° (E) 15:11:34 435.465 / 435.565
DX 1 01 Oct 14:55:25 14:56:56 12° 297° (WNW) 14:58:25 434.975-435.025
YUBILEINY 01 Oct 14:59:27 15:08:00 64° 268° (W) 15:16:32 435.215
TISAT 1 01 Oct 15:00:19 15:04:20 47° 287° (WNW) 15:08:20 437.305
Cosmos 2504 01 Oct 15:15:12 15:22:45 70° 81° (E) 15:30:50 435.465 / 435.565
SO-50 01 Oct 15:22:01 15:26:40 46° 306° (NW) 15:31:17 436.795
ITAMSAT 1 01 Oct 15:34:44 15:39:52 69° 258° (WSW) 15:45:03 435.822/435.867
ITUPSAT 1 01 Oct 15:39:38 15:44:28 72° 102° (ESE) 15:49:15 437.325
AO-7 01 Oct 15:47:31 15:55:50 83° 70° (ENE) 16:04:11 29.400- 29.500
SWISSCUBE 01 Oct 15:50:28 15:55:18 78° 286° (WNW) 16:00:05 437.505
BEESAT 01 Oct 16:03:03 16:07:48 64° 286° (WNW) 16:12:32 436.000
AIST 1 01 Oct 16:07:45 16:11:52 45° 79° (E) 16:15:56
KKS-1 01 Oct 16:48:51 16:53:02 40° 99° (E) 16:57:11 437.445
MOZHAYETS 4 01 Oct 16:53:03 16:57:43 78° 103° (ESE) 17:02:22
O/OREOS (USA 219) 01 Oct 16:53:22 16:57:59 77° 68° (ENE) 17:02:33 437.305
Cosmos 2491 01 Oct 16:53:34 17:00:23 24° 293° (WNW) 17:07:17 435.465 / 435.565
HORYU 2 01 Oct 17:05:29 17:09:40 44° 72° (ENE) 17:13:53 437.375
Cosmos 2504 01 Oct 17:10:09 17:15:25 21° 277° (W) 17:20:55 435.465 / 435.565
STARS 01 Oct 17:11:15 17:15:13 33° 98° (E) 17:19:09 437.465
BRITE-PL 01 Oct 17:12:13 17:17:20 36° 70° (ENE) 17:22:19 437.365/2234.400
ITUPSAT 1 01 Oct 17:19:38 17:21:40 13° 298° (WNW) 17:23:41 437.325
LilacSat-2 01 Oct 17:25:11 17:25:50 10° 65° (ENE) 17:26:29 437.200
NOAA 15 01 Oct 17:34:49 17:39:14 27° 66° (ENE) 17:43:40 137.62
NOAA 18 01 Oct 17:41:21 17:45:24 22° 64° (ENE) 17:49:27 137.9125
AO-7 01 Oct 17:43:58 17:49:25 19° 268° (W) 17:54:56 29.400- 29.500
AIST 1 01 Oct 17:47:04 17:48:59 13° 275° (W) 17:50:52
RS-15 01 Oct 17:50:51 17:57:56 19° 97° (E) 18:05:11 29.354- 29.394
CUTE-I 01 Oct 18:04:09 18:09:05 41° 70° (ENE) 18:14:03 437.470
Cubesat XI-IV 01 Oct 18:05:21 18:10:18 41° 70° (ENE) 18:15:17 437.490
ISS 01 Oct 18:06:49 18:08:39 14° 129° (SE) 18:10:30 145.825
Cosmos 2499 01 Oct 18:15:54 18:19:18 13° 63° (ENE) 18:22:48 435.465 / 435.565
GOMX 1 01 Oct 18:18:13 18:23:31 65° 74° (ENE) 18:28:31 467.674
HO-68 01 Oct 18:19:20 18:22:50 14° 54° (NE) 18:26:20 435.675
DOVE 4 01 Oct 18:19:44 18:23:52 28° 70° (ENE) 18:27:49 437.250
CUBESAT XI-V 01 Oct 18:24:02 18:28:45 87° 288° (WNW) 18:33:24 437.345
KKS-1 01 Oct 18:26:18 18:29:16 18° 294° (WNW) 18:32:15 437.445
MOZHAYETS 4 01 Oct 18:33:05 18:34:12 11° 298° (WNW) 18:35:18
HORYU 2 01 Oct 18:43:52 18:46:26 15° 267° (W) 18:49:01 437.375
STARS 01 Oct 18:48:05 18:51:21 21° 293° (WNW) 18:54:36 437.465
BRITE-PL 01 Oct 18:50:47 18:55:44 31° 265° (W) 19:00:36 437.365/2234.400
CUSAT 1 01 Oct 18:53:46 19:00:10 64° 93° (E) 19:07:51 437.405
LilacSat-2 01 Oct 18:56:00 18:59:39 51° 261° (W) 19:03:21 437.200
CINEMA 3 01 Oct 19:02:17 19:05:16 18° 68° (ENE) 19:08:11 145.822/145.860
NOAA 15 01 Oct 19:13:58 19:18:50 36° 262° (W) 19:23:43 137.62
NOAA 18 01 Oct 19:20:24 19:25:41 49° 260° (W) 19:30:58 137.9125
GONETS M04 01 Oct 19:22:22 19:30:48 48° 76° (ENE) 19:39:07
AO-85 01 Oct 19:23:48 19:27:33 20° 110° (ESE) 19:31:10 145.980
DANDE 01 Oct 19:23:52 19:28:58 41° 88° (E) 19:35:29 436.750
STRAND 1 01 Oct 19:31:10 19:35:00 21° 94° (E) 19:38:49 437.568
SEEDS 01 Oct 19:36:11 19:39:18 21° 68° (ENE) 19:42:27 437.485
ISS 01 Oct 19:41:38 19:44:49 53° 325° (NW) 19:48:02 145.825
CUTE 1.7 + AOD 2 01 Oct 19:41:50 19:45:39 34° 72° (ENE) 19:49:31 437.475
CUBEBUG 2 01 Oct 19:42:38 19:44:22 12° 65° (ENE) 19:46:05 437.445
CANX-2 01 Oct 19:43:46 19:47:46 41° 73° (ENE) 19:51:48 2200.000
CUTE-I 01 Oct 19:45:05 19:49:15 23° 266° (W) 19:53:27 437.470
Cubesat XI-IV 01 Oct 19:46:21 19:50:30 23° 266° (W) 19:54:40 437.490
AAUSAT CUBESAT 2 01 Oct 19:47:20 19:49:37 14° 66° (ENE) 19:51:54 437.432
UWE-3 01 Oct 19:53:10 19:53:31 10° 63° (ENE) 19:53:51 435.000/436.395/437.385
RS-15 01 Oct 19:56:47 20:08:20 83° 118° (ESE) 20:20:33 29.354- 29.394
DOVE 4 01 Oct 19:57:11 20:01:28 29° 263° (W) 20:05:34 437.250
GOMX 1 01 Oct 19:59:02 20:01:53 14° 269° (W) 20:04:39 467.674
HO-68 01 Oct 20:02:14 20:09:23 77° 72° (ENE) 20:16:33 435.675
Cosmos 2499 01 Oct 20:05:51 20:13:35 77° 82° (E) 20:21:56 435.465 / 435.565
ZACube-1 01 Oct 20:12:21 20:13:09 10° 63° (ENE) 20:13:58 437.345
COMPASS 1 01 Oct 20:33:47 20:37:55 63° 75° (ENE) 20:42:05 437.405
CUSAT 1 01 Oct 20:37:21 20:42:51 25° 295° (WNW) 20:49:03 437.405
CINEMA 3 01 Oct 20:38:05 20:42:10 36° 262° (W) 20:46:08 145.822/145.860
JUGNU 01 Oct 20:43:18 20:45:09 11° 180° (S) 20:47:01 437.505
FUNcube-1 01 Oct 21:00:37 21:04:22 35° 72° (ENE) 21:08:08 145.935
AO-85 01 Oct 21:02:39 21:07:43 52° 305° (NW) 21:12:29 145.980
DANDE 01 Oct 21:06:56 21:11:55 30° 293° (WNW) 21:18:07 436.750
PRISM 01 Oct 21:07:40 21:10:11 16° 93° (E) 21:12:41 437.425
STRAND 1 01 Oct 21:09:28 21:14:21 44° 289° (WNW) 21:19:12 437.568
SEEDS 01 Oct 21:11:02 21:14:46 31° 263° (W) 21:18:34 437.485
CUBEBUG 2 01 Oct 21:16:28 21:20:33 52° 261° (W) 21:24:36 437.445
CUTE 1.7 + AOD 2 01 Oct 21:18:36 21:21:34 18° 267° (W) 21:24:34 437.475
GONETS M04 01 Oct 21:19:37 21:27:18 36° 275° (W) 21:34:57
ISS 01 Oct 21:20:17 21:21:54 13° 343° (NNW) 21:23:31 145.825
AAUSAT CUBESAT 2 01 Oct 21:20:41 21:24:40 45° 261° (W) 21:28:43 437.432
CANX-2 01 Oct 21:21:19 21:23:48 15° 268° (W) 21:26:18 2200.000
UWE-3 01 Oct 21:25:18 21:29:24 65° 259° (WSW) 21:33:32 435.000/436.395/437.385
HUMSAT D 01 Oct 21:28:58 21:31:17 15° 66° (ENE) 21:33:36 437.325/437.525
Oscar 11 01 Oct 21:34:11 21:38:29 87° 257° (WSW) 21:42:50 145.826/435.025
ZACube-1 01 Oct 21:44:48 21:48:53 62° 260° (W) 21:53:00 437.345
HO-68 01 Oct 21:53:07 21:57:44 18° 269° (W) 22:02:23 435.675
Cosmos 2499 01 Oct 22:00:49 22:05:54 19° 278° (W) 22:11:12 435.465 / 435.565
DELFI C3 01 Oct 22:03:20 22:07:20 78° 75° (ENE) 22:11:22 145.870
RS-15 01 Oct 22:11:54 22:22:19 34° 323° (NW) 22:33:12 29.354- 29.394
TIGRISAT 01 Oct 22:12:06 22:13:12 11° 91° (E) 22:14:19 435.000
SO-50 01 Oct 22:15:25 22:18:07 15° 42° (NE) 22:20:46 436.795
FUNcube-1 01 Oct 22:38:03 22:40:43 17° 267° (W) 22:43:25 145.935
PRISM 01 Oct 22:41:48 22:45:37 37° 289° (WNW) 22:49:23 437.425
UNISAT 6 01 Oct 22:51:37 22:55:40 33° 97° (E) 22:59:47 437.425
CUBEBUG 1 01 Oct 22:53:01 22:55:13 14° 64° (ENE) 22:57:24 437.445
VELOX 1 01 Oct 23:00:37 23:02:37 13° 63° (ENE) 23:04:36 145.980
HUMSAT D 01 Oct 23:02:39 23:06:31 42° 261° (W) 23:10:27 437.325/437.525
ESTCUBE 1 01 Oct 23:17:43 23:21:57 40° 71° (ENE) 23:26:12 437.505/2401.250
ANTELSAT 01 Oct 23:26:30 23:30:59 82° 104° (ESE) 23:35:33 437.575/2403.000
BEESAT 2 01 Oct 23:34:29 23:35:48 11° 108° (ESE) 23:37:07 435.950
UKube-1 01 Oct 23:35:48 23:38:11 15° 64° (ENE) 23:40:34 .
SRMSAT 01 Oct 23:36:35 23:38:11 11° 183° (S) 23:39:48 437.500
NANOSAT C BR1 01 Oct 23:40:17 23:42:00 12° 92° (E) 23:43:41 145.865
M-CUBED/EXP-1 PRIME 01 Oct 23:41:15 23:44:37 27° 67° (ENE) 23:47:47 437.505
TIGRISAT 01 Oct 23:45:50 23:50:14 65° 285° (WNW) 23:54:44 435.000
50 SAT 01 Oct 23:48:01 23:51:18 34° 72° (ENE) 23:54:38 437.505
AISAT 01 Oct 23:51:07 23:55:23 47° 73° (ENE) 23:59:39 437.250
SO-50 01 Oct 23:54:33 23:59:06 72° 241° (WSW) 00:03:32 436.795
BEESAT 3 02 Oct 00:04:22 00:08:11 56° 118° (ESE) 00:12:02 437.485
QB50P2 02 Oct 00:06:21 00:10:03 28° 97° (E) 00:13:43 145.880/145.840
POLYITAN 1 02 Oct 00:08:31 00:12:12 28° 97° (E) 00:15:53 437.675
DX 1 02 Oct 00:11:02 00:15:12 46° 72° (ENE) 00:19:23 434.975-435.025
BUGSAT 1 02 Oct 00:24:57 00:27:05 14° 93° (E) 00:29:13 437.445
CUBEBUG 1 02 Oct 00:26:41 00:31:00 55° 260° (W) 00:35:20 437.445
UNISAT 6 02 Oct 00:28:46 00:32:11 22° 292° (WNW) 00:35:38 437.425
RS-15 02 Oct 00:32:13 00:40:17 19° 358° (N) 00:48:27 29.354- 29.394
AUBIESAT-1 02 Oct 00:33:35 00:37:34 86° 252° (WSW) 00:41:16 437.475
VELOX 1 02 Oct 00:34:09 00:38:33 60° 259° (W) 00:42:57 145.980
ISS 02 Oct 00:34:40 00:37:07 19° 24° (NNE) 00:39:33 145.825
JAS-2 02 Oct 00:39:18 00:46:58 55° 99° (E) 00:54:03 435.910
DUCHIFAT 1 02 Oct 00:39:33 00:43:42 57° 101° (E) 00:47:49 145.980
SPROUT 02 Oct 00:46:11 00:50:27 81° 259° (W) 00:54:43 437.525
QB50P1 02 Oct 00:46:40 00:50:55 82° 102° (ESE) 00:55:08 145.935-145.965
ESTCUBE 1 02 Oct 00:55:47 00:58:53 18° 267° (W) 01:02:00 437.505/2401.250
POPSAT HIP 1 02 Oct 01:00:41 01:04:53 70° 286° (WNW) 01:09:05 437.405
Cosmos 2491 02 Oct 01:06:33 01:14:18 33° 71° (ENE) 01:21:56 435.465 / 435.565
BEESAT 2 02 Oct 01:09:15 01:13:06 54° 304° (NW) 01:17:01 435.950
UKube-1 02 Oct 01:09:36 01:13:47 49° 260° (W) 01:18:00 .
NANOSAT C BR1 02 Oct 01:13:54 01:17:59 51° 286° (WNW) 01:22:04 145.865
M-CUBED/EXP-1 PRIME 02 Oct 01:15:59 01:19:04 21° 258° (WSW) 01:22:01 437.505
SWISSCUBE 02 Oct 01:21:37 01:23:06 11° 61° (ENE) 01:24:34 437.505
50 SAT 02 Oct 01:23:07 01:24:54 13° 267° (W) 01:26:43 437.505
AISAT 02 Oct 01:29:35 01:32:04 15° 267° (W) 01:34:34 437.250
BEESAT 02 Oct 01:33:09 01:35:28 14° 62° (ENE) 01:37:47 436.000
QB50P2 02 Oct 01:42:24 01:45:41 22° 292° (WNW) 01:48:58 145.880/145.840
BEESAT 3 02 Oct 01:44:02 01:46:11 14° 315° (NW) 01:48:21 437.485
POLYITAN 1 02 Oct 01:44:33 01:47:50 22° 292° (WNW) 01:51:07 437.675
DX 1 02 Oct 01:49:11 01:51:36 15° 267° (W) 01:54:03 434.975-435.025
TISAT 1 02 Oct 01:50:08 01:54:19 79° 257° (WSW) 01:58:30 437.305
BUGSAT 1 02 Oct 01:58:50 02:02:37 40° 287° (WNW) 02:06:25 437.445
YUBILEINY 02 Oct 02:03:18 02:10:40 31° 84° (E) 02:17:59 435.215
ISS 02 Oct 02:10:36 02:13:52 65° 221° (SW) 02:17:07 145.825
DUCHIFAT 1 02 Oct 02:17:18 02:18:53 12° 296° (WNW) 02:20:27 145.980
JAS-2 02 Oct 02:24:50 02:31:28 32° 297° (WNW) 02:37:47 435.910
AIST 2 02 Oct 02:33:10 02:36:54 35° 114° (ESE) 02:40:41 435.215
Gurwin Techsat 1B 02 Oct 02:40:46 02:45:44 39° 98° (E) 02:50:41 435.225
ITUPSAT 1 02 Oct 02:44:56 02:49:40 72° 74° (ENE) 02:54:27 437.325
Oscar 19 02 Oct 02:45:33 02:50:44 87° 284° (WNW) 02:55:51 437.125/150
RS-15 02 Oct 02:47:59 02:58:35 31° 33° (NNE) 03:09:04 29.354- 29.394
SWISSCUBE 02 Oct 02:55:27 03:00:12 78° 257° (WSW) 03:05:00 437.505
Cosmos 2491 02 Oct 03:02:57 03:11:25 53° 270° (W) 03:19:50 435.465 / 435.565
BEESAT 02 Oct 03:07:58 03:12:40 64° 258° (WSW) 03:17:26 436.000
PCSat 02 Oct 03:41:12 03:46:30 60° 114° (ESE) 03:51:51 145.827
KKS-1 02 Oct 03:45:41 03:49:38 32° 70° (ENE) 03:53:35 437.445
ITAMSAT 1 02 Oct 03:48:49 03:53:52 46° 100° (E) 03:58:51 435.822/435.867
AO-7 02 Oct 03:51:16 03:58:16 29° 96° (E) 04:05:12 29.400- 29.500
Cosmos 2504 02 Oct 03:52:30 03:59:41 60° 92° (E) 04:06:42 435.465 / 435.565
MOZHAYETS 4 02 Oct 03:53:23 03:57:54 63° 75° (ENE) 04:02:28
AO-85 02 Oct 03:57:33 03:58:56 11° 40° (NE) 04:00:17 145.980
YUBILEINY 02 Oct 03:58:28 04:06:59 54° 283° (WNW) 04:15:31 435.215
STARS 02 Oct 04:06:51 04:10:28 26° 69° (ENE) 04:14:06 437.465
AIST 2 02 Oct 04:12:16 04:15:27 21° 312° (NW) 04:18:41 435.215
Gurwin Techsat 1B 02 Oct 04:21:10 04:25:27 25° 294° (WNW) 04:29:43 435.225
ITUPSAT 1 02 Oct 04:26:52 04:27:59 11° 270° (W) 04:29:06 437.325
Oscar 19 02 Oct 04:28:12 04:29:13 11° 301° (WNW) 04:30:14 437.125/150
AIST 1 02 Oct 04:35:48 04:39:34 29° 90° (E) 04:43:20
RS-15 02 Oct 05:00:35 05:13:05 87° 60° (ENE) 05:25:11 29.354- 29.394
KKS-1 02 Oct 05:22:49 05:26:13 21° 265° (W) 05:29:39 437.445
CUBESAT XI-V 02 Oct 05:25:37 05:30:18 78° 77° (ENE) 05:35:02 437.345
PCSat 02 Oct 05:26:16 05:30:18 21° 312° (NW) 05:34:22 145.827
ITAMSAT 1 02 Oct 05:29:05 05:32:58 21° 296° (WNW) 05:36:50 435.822/435.867
CUSAT 1 02 Oct 05:30:40 05:37:40 43° 72° (ENE) 05:43:21 437.405
MOZHAYETS 4 02 Oct 05:33:55 05:35:28 11° 270° (W) 05:37:01
AO-85 02 Oct 05:35:53 05:40:00 82° 241° (WSW) 05:43:53 145.980
STARS 02 Oct 05:43:04 05:46:44 26° 264° (W) 05:50:25 437.465
AO-7 02 Oct 05:43:18 05:51:22 59° 294° (WNW) 05:59:27 29.400- 29.500
Cosmos 2504 02 Oct 05:48:01 05:53:31 22° 291° (WNW) 05:58:56 435.465 / 435.565
DANDE 02 Oct 06:03:17 06:10:59 39° 71° (ENE) 06:17:52 436.750
AIST 1 02 Oct 06:13:47 06:17:09 21° 286° (WNW) 06:20:31
GOMX 1 02 Oct 06:22:56 06:25:44 17° 92° (E) 06:28:28 467.674
CUTE-I 02 Oct 06:23:17 06:26:52 18° 93° (E) 06:30:25 437.470
Cubesat XI-IV 02 Oct 06:24:38 06:28:16 18° 93° (E) 06:31:53 437.490
LilacSat-2 02 Oct 06:31:13 06:33:51 17° 94° (E) 06:36:29 437.200
HORYU 2 02 Oct 06:33:36 06:38:04 76° 284° (WNW) 06:42:31 437.375
STRAND 1 02 Oct 06:45:49 06:50:02 27° 67° (ENE) 06:54:15 437.568
BRITE-PL 02 Oct 06:56:56 07:01:34 72° 285° (WNW) 07:05:51 437.365/2234.400
O/OREOS (USA 219) 02 Oct 07:04:08 07:08:40 71° 291° (WNW) 07:13:16 437.305
CUSAT 1 02 Oct 07:13:11 07:19:18 31° 275° (W) 07:24:26 437.405
RS-15 02 Oct 07:15:03 07:23:58 24° 260° (W) 07:32:44 29.354- 29.394
NOAA 15 02 Oct 07:29:47 07:35:06 87° 285° (WNW) 07:40:23 137.62
HO-68 02 Oct 07:33:51 07:37:25 14° 90° (E) 07:40:57 435.675
AO-7 02 Oct 07:39:21 07:42:25 13° 314° (NW) 07:45:29 29.400- 29.500
NOAA 18 02 Oct 07:43:21 07:48:51 78° 104° (ESE) 07:54:20 137.9125
DANDE 02 Oct 07:46:02 07:53:50 45° 271° (W) 08:00:43 436.750
DOVE 4 02 Oct 07:56:35 08:00:45 84° 104° (ESE) 08:04:54 437.250
PRISM 02 Oct 07:57:38 07:58:36 11° 63° (ENE) 07:59:34 437.425
GOMX 1 02 Oct 08:00:06 08:03:59 34° 289° (WNW) 08:07:45 467.674
CUTE-I 02 Oct 08:01:59 08:07:12 54° 288° (WNW) 08:12:24 437.470
Cubesat XI-IV 02 Oct 08:03:25 08:08:37 53° 288° (WNW) 08:13:49 437.490
LilacSat-2 02 Oct 08:04:48 08:08:09 29° 289° (WNW) 08:11:32 437.200
COMPASS 1 02 Oct 08:20:14 08:21:26 11° 90° (E) 08:22:39 437.405
GONETS M04 02 Oct 08:21:18 08:29:52 57° 90° (E) 08:38:27
BEESAT 3 02 Oct 08:22:54 08:26:09 23° 50° (NE) 08:29:23 437.485
STRAND 1 02 Oct 08:24:26 08:29:02 34° 263° (W) 08:33:41 437.568
CINEMA 3 02 Oct 08:33:08 08:37:15 51° 100° (E) 08:41:30 145.822/145.860
PHONESAT 2.4 02 Oct 08:36:09 08:38:32 23° 152° (SSE) 08:40:55 2401.200-2431.200
Cosmos 2499 02 Oct 08:41:32 08:48:32 63° 93° (E) 08:55:30 435.465 / 435.565
SEEDS 02 Oct 08:55:34 08:59:40 44° 99° (E) 09:03:43 437.485
CUTE 1.7 + AOD 2 02 Oct 09:03:04 09:07:23 82° 101° (E) 09:11:41 437.475
AAUSAT CUBESAT 2 02 Oct 09:04:15 09:07:54 29° 96° (E) 09:11:31 437.432
CANX-2 02 Oct 09:05:21 09:09:40 80° 283° (WNW) 09:13:58 2200.000
CUBEBUG 2 02 Oct 09:08:03 09:12:00 33° 97° (E) 09:16:03 437.445
NOAA 15 02 Oct 09:12:34 09:14:03 11° 301° (WNW) 09:15:31 137.62
